Location: Eurasberg
(48.3353°N, 11.0839°E)
Time: 13:48:08
(UTC+00:00)

Timation 1 Rocket - Pass Details

Date: 26 April 2026
Orbit: 895 x 908 km, 70.0° (Epoch: 14 May)

Event Time Altitude Azimuth Distance (km) Brightness Sun altitude
Exits shadow 23:53:17 26° 271° (W) 1,707 5.6 -27.3°
Maximum altitude 23:55:38 35° 313° (NW) 1,428 5.6 -27.2°
Drops below altitude 10° 00:01:08 10° 18° (NNE) 2,603 7.7 -27.0°
Sets 00:03:53 0° 27° (NNE) 3,548 8.6 -26.9°
